Location: Wellington
(39.8717°N, 86.1436°W)
Time: 05:44:09
(UTC+00:00)

Daily predictions for brighter satellites

Satellite Brightness Start Highest point End
(mag) Time Altitude Azimuth Time Altitude Azimuth Time Altitude Azimuth
PSLV R/B 3.4 00:00:48 10° SSE 00:04:46 56° ENE 00:08:44 10° N
RESURS DK-1 2.5 00:02:04 10° NNW 00:05:57 46° ENE 00:05:58 46° ENE
Okean 2 Rocket 3.3 00:03:20 10° SSE 00:07:32 45° E 00:08:01 43° ENE
Nadezhda 4 Rocket 4.1 00:03:56 10° N 00:10:04 52° E 00:16:07 10° SSE
ATLAS 2AS CENTAUR R/B 4.4 00:07:08 10° N 00:10:20 14° NNE 00:10:49 13° NNE
ISS -2.7 00:10:41 10° W 00:13:49 37° NNW 00:14:17 35° N
CZ-2D R/B 3.6 00:10:38 10° S 00:14:41 74° WSW 00:18:52 10° NNW
SJ 16-02 1.3 00:10:55 10° S 00:15:05 53° ESE 00:15:05 53° ESE
Spot 4 Rocket 3.9 00:11:48 10° SSE 00:16:54 90° WSW 00:22:01 10° NNW
Helios 1A Rocket 3.1 00:17:58 26° N 00:19:38 54° WNW 00:22:56 10° SSW
Cosmos 1536 Rocket 3.6 00:15:23 10° N 00:19:15 54° NE 00:19:15 54° NE
ATLAS 5 CENTAUR R/B 2.7 00:19:30 10° NW 00:24:08 54° WSW 00:29:49 10° SSE
USA 215 4.4 00:18:47 10° SSE 00:24:51 41° SW 00:30:58 10° WNW
Cosmos 1428 Rocket 4.4 00:26:02 10° N 00:32:16 65° E 00:38:30 10° SSE
Cosmos 371 Rocket 3.4 00:27:38 10° S 00:31:39 55° SE 00:31:39 55° SE
Aureole 3 Rocket 4.5 00:29:43 10° SW 00:32:24 25° WNW 00:34:06 16° NNW
Cosmos 2058 3.1 00:29:30 10° NNW 00:33:26 66° W 00:37:21 10° S
Cosmos 304 Rocket 3.9 00:36:29 10° SSW 00:40:27 62° S 00:40:27 62° S
NOAA 6 4.0 00:36:58 10° SSE 00:42:07 82° WSW 00:47:17 10° NNW
Cosmos 1763 Rocket 4.4 00:37:09 10° NNW 00:42:08 48° WSW 00:47:02 10° S
Cosmos 540 Rocket 4.1 00:39:56 10° NNW 00:44:56 54° WSW 00:49:52 10° S
OAO 3 Rocket 4.0 00:45:44 10° WSW 00:49:21 41° SSW 00:49:21 41° SSW
Cosmos 1400 Rocket 4.1 00:46:53 10° SSW 00:49:28 35° SW 00:49:28 35° SW
Cosmos 2251 Rocket 4.5 00:47:12 10° SW 00:52:13 45° WNW 00:55:23 21° N
Sich 1 Rocket 4.3 00:52:07 10° SSW 00:55:44 50° SW 00:55:44 50° SW
Geosat 4.2 01:00:33 68° W 01:00:33 68° W 01:05:19 10° NNW
Cosmos 2034 Rocket 4.1 00:54:36 10° SSW 01:00:45 72° W 01:07:00 10° N
USA 281 3.6 01:07:16 49° N 01:07:16 49° N 01:12:11 10° NNW
Meteor 2-1 Rocket 4.4 01:01:12 10° SSW 01:07:03 76° W 01:07:22 74° NW
Cosmos 2082 Rocket 3.2 01:23:31 10° NW 01:28:04 44° W 01:28:04 44° W
Cosmos 2278 Rocket 4.5 01:25:22 10° W 01:29:19 19° NW 01:32:26 13° NNW
Cosmos 2344 4.1 01:38:54 10° NNW 01:45:44 64° N 01:45:44 64° N
SJ 16-02 4.5 01:51:17 10° W 01:51:41 11° W 01:51:41 11° W
USA 267 4.4 08:49:13 10° ENE 08:53:32 37° E 08:53:32 37° E
ACS3 Solar Sail 4.1 09:20:13 10° N 09:20:28 11° N 09:20:28 11° N
SL-16 R/B 4.0 09:37:45 10° SSE 09:42:32 29° ESE 09:47:20 10° NE
Cosmos 1725 Rocket 4.3 09:40:26 10° N 09:46:44 66° E 09:52:58 10° SSE
CZ-2C R/B 4.0 09:56:14 10° NNE 09:58:22 26° N 09:58:22 26° N
Cosmos 1802 Rocket 3.8 10:06:58 49° NNW 10:08:44 76° W 10:14:55 10° S
Cosmos 1190 Rocket 4.2 10:15:29 31° N 10:18:01 67° ENE 10:23:11 10° SSE
SJ 16-02 2.3 10:18:05 26° NNE 10:20:03 44° ENE 10:24:07 10° SE
Cosmos 2237 Rocket 3.3 10:24:59 27° NNW 10:24:59 27° NNW 10:28:07 10° N
Cosmos 2278 Rocket 3.2 10:25:23 30° SSW 10:25:23 30° SSW 10:28:35 10° S
Cosmos 1943 Rocket 3.5 10:28:04 24° SSW 10:28:04 24° SSW 10:30:29 10° S
Cosmos 2056 Rocket 3.4 10:21:55 18° SSW 10:25:58 87° WNW 10:31:23 10° NNE
ARGOS 4.5 10:23:45 10° N 10:26:11 25° NNW 10:26:11 25° NNW
USA 229 DEB 3.7 10:24:30 10° SSW 10:30:11 64° ESE 10:36:29 10° NE
USA 229 3.7 10:24:44 10° SSW 10:30:23 63° ESE 10:36:41 10° NE
Cosmos 2016 Rocket 4.0 10:25:16 10° NNW 10:31:30 60° W 10:37:39 10° S
Cosmos 1954 Rocket 4.1 10:28:36 20° NNW 10:32:11 73° ENE 10:37:18 10° SSE
Cosmos 2369 Rocket 3.8 10:30:06 10° N 10:35:12 33° ENE 10:40:18 10° ESE
USA 267 3.4 10:32:12 10° NE 10:38:29 52° NW 10:40:54 35° W
Cosmos 1782 Rocket 3.9 10:42:02 43° SW 10:42:02 43° SW 10:45:20 10° SSW
IRS-1D 3.5 10:37:19 10° NNE 10:42:15 76° ESE 10:47:10 10° S
Cosmos 1371 Rocket 4.0 10:41:01 14° SSW 10:45:28 61° WNW 10:50:46 10° NNE
Iridium 4 Rocket 4.2 10:47:38 25° SW 10:47:38 25° SW 10:49:38 10° SSW
FengYun 1-2 T 4.1 10:43:20 10° N 10:48:54 71° WNW 10:54:28 10° SSW
Cosmos 1869 2.9 10:47:38 28° N 10:49:22 86° E 10:52:51 10° S
Cosmos 371 Rocket 3.3 10:45:35 15° NNW 10:49:37 83° ENE 10:54:26 10° SSE
Helios 1A Rocket 3.5 10:46:39 10° SSE 10:49:51 44° ENE 10:53:06 10° N
ATLAS 3B R/B 2.9 10:43:39 10° SSW 10:51:04 89° WNW 10:58:58 10° NNE
Cosmos 1812 2.5 10:53:54 20° N 10:55:42 57° E 10:58:33 10° SSE
Cosmos 304 Rocket 3.6 10:53:23 16° NNW 10:57:14 80° WSW 11:01:59 10° SSE
CENTAUR R/B 4.0 10:49:03 10° NNW 10:57:19 55° NE 11:06:31 10° SE
CZ-4 R/B 3.7 10:52:44 10° NNE 10:57:35 84° WNW 11:02:17 10° SSW
Chandra Rocket (1) 4.3 10:54:13 16° SW 10:57:56 31° S 11:10:34 10° ESE
Meteor 1-21 Rocket 4.2 10:55:13 10° S 11:00:59 89° E 11:06:40 10° N
Cosmos 1110 Rocket 4.3 10:56:17 10° S 11:01:31 71° ESE 11:06:48 10° NNE
NOSS 7 (E) 4.3 11:01:29 35° NNW 11:02:43 88° ENE 11:06:23 10° SSE
Cosmos 1378 Rocket 3.4 11:01:11 10° S 11:05:27 89° E 11:09:45 10° N
Cosmos 2242 Rocket 3.7 11:05:10 10° SSW 11:09:25 50° W 11:13:43 10° N
NOAA 12 4.0 11:04:57 10° N 11:10:16 73° WNW 11:15:32 10° SSW
Cosmos 1656 Rocket 3.6 11:05:42 10° NNW 11:11:20 67° WSW 11:16:56 10° S
USA 234 3.4 11:06:25 10° SE 11:12:58 79° NE 11:19:11 12° NW
In-Cosmos 22 Rocket 4.3 11:09:56 10° SSW 11:15:38 58° WNW 11:21:23 10° N
Okean 1 Rocket 4.5 11:12:37 10° N 11:16:40 39° ENE 11:20:41 10° SSE
CZ-3 R/B 3.2 11:04:05 10° WSW 11:17:32 38° S 11:22:46 10° ESE
Cosmos 2251 Rocket 4.5 11:18:51 18° WNW 11:21:32 27° W 11:25:55 10° SSW
Cosmos 1891 Rocket 4.4 11:17:36 10° NNW 11:23:54 69° W 11:30:00 10° S
SL-16 R/B 2.6 11:21:08 10° SW 11:26:25 39° WNW 11:31:44 10° N
IGS 5A 4.1 11:27:15 10° NNE 11:31:13 56° E 11:35:08 10° S
H-2A R/B 4.1 11:32:31 10° SSW 11:34:45 17° SSE 11:39:13 10° SE
Cosmos 1452 Rocket 3.4 11:29:49 10° SSW 11:35:02 79° WNW 11:40:17 10° NNE
Aureole 3 Rocket 4.3 11:29:47 10° NNW 11:35:12 52° W 11:42:37 10° SSW
ARIANE 5 R/B 4.4 11:38:12 10° NNE 11:42:53 35° E 11:47:34 10° SSE
Cosmos 1850 Rocket 4.0 11:38:48 10° NNW 11:43:59 89° ENE 11:49:09 10° SSE
Cosmos 1464 Rocket 3.9 11:40:09 10° N 11:46:17 73° W 11:52:21 10° S
Cosmos 1331 Rocket 4.3 11:43:42 10° SW 11:48:44 46° WNW 11:53:46 10° N
Meteor 2-1 Rocket 4.5 11:43:38 10° N 11:49:33 81° E 11:55:17 10° SSE
Okean 2 Rocket 3.1 11:50:49 10° NNW 11:55:07 59° W 11:59:24 10° S
